This is the latest recevied weather packets stored in our database for station/object K7CTM. If no packets are shown the sender has not sent any weather packets the latest 10 day(s).
| Time | Temp. | Humidity | Pressure | Rain* | Wind** | Luminosity | Snow |
|---|---|---|---|---|---|---|---|
| 1777675444 | 21.11° C | 21% | 1027.5 hPa | 0 mm | - | 499 W/m² | - |
| 1777675140 | 21.67° C | 21% | 1027.4 hPa | 0 mm | - | 511 W/m² | - |
| 1777674836 | 21.67° C | 20% | 1027.5 hPa | 0 mm | - | 525 W/m² | - |
| 1777674533 | 22.22° C | 20% | 1027.4 hPa | 0 mm | - | 539 W/m² | - |
| 1777674231 | 21.67° C | 19% | 1027.7 hPa | 0 mm | - | 554 W/m² | - |
| 1777673927 | 22.22° C | 21% | 1027.7 hPa | 0 mm | - | 568 W/m² | - |
| 1777673624 | 21.11° C | 21% | 1027.8 hPa | 0 mm | - | 582 W/m² | - |
| 1777673322 | 21.11° C | 18% | 1027.8 hPa | 0 mm | - | 595 W/m² | - |
| 1777673019 | 21.67° C | 20% | 1027.9 hPa | 0 mm | - | 606 W/m² | - |
| 1777672715 | 21.11° C | 18% | 1027.9 hPa | 0 mm | - | 618 W/m² | - |
| 1777672411 | 20.56° C | 18% | 1027.9 hPa | 0 mm | - | 630 W/m² | - |
| 1777672107 | 20.56° C | 19% | 1028.2 hPa | 0 mm | - | 641 W/m² | - |
| 1777671803 | 21.67° C | 22% | 1028 hPa | 0 mm | - | 651 W/m² | - |
| 1777671499 | 21.11° C | 19% | 1028.1 hPa | 0 mm | - | 661 W/m² | - |
| 1777671195 | 20° C | 22% | 1028.2 hPa | 0 mm | - | 669 W/m² | - |
| 1777670891 | 20.56° C | 23% | 1028.6 hPa | 0 mm | - | 682 W/m² | - |
| 1777670588 | 21.11° C | 21% | 1028.2 hPa | 0 mm | - | 688 W/m² | - |
| 1777670285 | 20.56° C | 19% | 1028.2 hPa | 0 mm | - | 688 W/m² | - |
| 1777669982 | 20° C | 22% | 1028.5 hPa | 0 mm | - | 705 W/m² | - |
| 1777669679 | 20° C | 19% | 1028.5 hPa | 0 mm | - | 713 W/m² | - |
| 1777669376 | 21.11° C | 21% | 1028.6 hPa | 0 mm | - | 723 W/m² | - |
| 1777669072 | 20.56° C | 21% | 1028.6 hPa | 0 mm | - | 731 W/m² | - |
| 1777668769 | 20.56° C | 21% | 1028.3 hPa | 0 mm | - | 737 W/m² | - |
| 1777668466 | 20.56° C | 22% | 1028.5 hPa | 0 mm | - | 745 W/m² | - |
| 1777668163 | 20° C | 23% | 1028.5 hPa | 0 mm | - | 754 W/m² | - |
* Rain latest hour (hover to see other rain measurements)
** Current wind speed in m/s (hover to see current wind gust speed)